| time (UTC) | temp C | wind direction | speed KPH | gust KPH | rain 1hr cm | rain 24hr cm | rain mn cm | humidity % | barometer mb |
| 20260904070508 | 18 | 258 | 14.5 | 20.9 | 0.00 | 0.00 | 0.00 | 85 | 1011.4 |
| 20260904070453 | 18 | 264 | 16.1 | 22.5 | 0.00 | 0.10 | 0.00 | 85 | 1013.4 |
| 20260904065958 | 18 | 252 | 12.9 | 22.5 | 0.00 | 0.10 | 0.00 | 85 | 1013.3 |
| 20260904065508 | 18 | 262 | 12.9 | 24.1 | 0.00 | 0.00 | 0.00 | 86 | 1011.3 |
| 20260904065453 | 17 | 258 | 12.9 | 24.1 | 0.00 | 0.10 | 0.00 | 85 | 1013.3 |
| 20260904065008 | 18 | 271 | 14.5 | 24.1 | 0.00 | 0.00 | 0.00 | 86 | 1011.6 |
| 20260904064952 | 17 | 253 | 14.5 | 24.1 | 0.00 | 0.10 | 0.00 | 86 | 1013.5 |
| 20260904064507 | 17 | 249 | 14.5 | 24.1 | 0.00 | 0.00 | 0.00 | 86 | 1011.6 |
| 20260904064453 | 17 | 264 | 12.9 | 24.1 | 0.00 | 0.10 | 0.00 | 86 | 1013.6 |
| 20260904064008 | 17 | 245 | 14.5 | 20.9 | 0.00 | 0.00 | 0.00 | 86 | 1011.6 |
| 20260904063953 | 17 | 263 | 14.5 | 22.5 | 0.00 | 0.10 | 0.00 | 86 | 1013.5 |
| 20260904063453 | 17 | 254 | 16.1 | 22.5 | 0.00 | 0.10 | 0.00 | 86 | 1013.6 |
| 20260904063008 | 17 | 284 | 17.7 | 24.1 | 0.00 | 0.00 | 0.00 | 86 | 1011.9 |
| 20260904062953 | 17 | 266 | 17.7 | 22.5 | 0.00 | 0.10 | 0.00 | 86 | 1013.7 |
| 20260904062508 | 17 | 269 | 16.1 | 24.1 | 0.00 | 0.00 | 0.00 | 86 | 1011.7 |
| 20260904062452 | 17 | 257 | 14.5 | 22.5 | 0.00 | 0.10 | 0.00 | 86 | 1013.5 |
| 20260904062007 | 17 | 256 | 12.9 | 16.1 | 0.00 | 0.00 | 0.00 | 86 | 1011.5 |
| 20260904061952 | 17 | 247 | 14.5 | 17.7 | 0.00 | 0.10 | 0.00 | 86 | 1013.5 |
| 20260904061453 | 17 | 253 | 14.5 | 19.3 | 0.00 | 0.10 | 0.00 | 86 | 1013.6 |
| 20260904061008 | 17 | 298 | 14.5 | 19.3 | 0.00 | 0.00 | 0.00 | 86 | 1011.6 |
| 20260904060953 | 17 | 247 | 14.5 | 19.3 | 0.00 | 0.10 | 0.00 | 86 | 1013.2 |
| 20260904060507 | 17 | 290 | 12.9 | 14.5 | 0.00 | 0.00 | 0.00 | 86 | 1011.3 |
| 20260904060008 | 17 | 244 | 11.3 | 16.1 | 0.00 | 0.00 | 0.00 | 86 | 1011.2 |
| 20260904055958 | 17 | 256 | 11.3 | 16.1 | 0.00 | 0.10 | 0.00 | 86 | 1013.3 |
| 20260904055452 | 17 | 283 | 12.9 | 16.1 | 0.00 | 0.10 | 0.00 | 87 | 1013.5 |
| 20260904055008 | 17 | 278 | 11.3 | 12.9 | 0.00 | 0.00 | 0.00 | 86 | 1011.5 |
| 20260904054508 | 17 | 242 | 9.7 | 12.9 | 0.00 | 0.00 | 0.00 | 87 | 1011.4 |
| 20260904054453 | 17 | 275 | 9.7 | 12.9 | 0.00 | 0.10 | 0.00 | 87 | 1013.4 |
| 20260904054008 | 16 | 226 | 9.7 | 12.9 | 0.00 | 0.00 | 0.00 | 88 | 1011.3 |
| 20260904053953 | 16 | 246 | 9.7 | 12.9 | 0.00 | 0.10 | 0.00 | 88 | 1013.4 |
| 20260904053507 | 16 | 254 | 9.7 | 14.5 | 0.00 | 0.00 | 0.00 | 88 | 1011.4 |
| 20260904053453 | 16 | 232 | 9.7 | 12.9 | 0.00 | 0.10 | 0.00 | 88 | 1013.5 |
| 20260904052508 | 16 | 233 | 9.7 | 16.1 | 0.00 | 0.00 | 0.00 | 88 | 1011.5 |
| 20260904052453 | 16 | 256 | 9.7 | 16.1 | 0.00 | 0.10 | 0.00 | 89 | 1013.3 |
| 20260904052007 | 16 | 246 | 9.7 | 17.7 | 0.00 | 0.00 | 0.00 | 88 | 1011.4 |
| 20260904051953 | 16 | 289 | 9.7 | 16.1 | 0.00 | 0.10 | 0.00 | 89 | 1013.4 |
| 20260904051508 | 16 | 256 | 12.9 | 17.7 | 0.00 | 0.00 | 0.00 | 88 | 1011.4 |
| 20260904051453 | 16 | 280 | 12.9 | 16.1 | 0.00 | 0.10 | 0.00 | 89 | 1013.5 |
| 20260904051008 | 16 | 256 | 12.9 | 14.5 | 0.00 | 0.00 | 0.00 | 89 | 1011.5 |
| 20260904050953 | 16 | 240 | 11.3 | 16.1 | 0.00 | 0.10 | 0.00 | 89 | 1013.5 |
| 20260904050507 | 16 | 243 | 11.3 | 14.5 | 0.00 | 0.00 | 0.00 | 89 | 1011.6 |
| 20260904050453 | 16 | 229 | 11.3 | 14.5 | 0.00 | 0.10 | 0.00 | 90 | 1013.5 |
| 20260904050008 | 16 | 240 | 11.3 | 14.5 | 0.00 | 0.00 | 0.00 | 89 | 1011.7 |
| 20260904045959 | 16 | 243 | 11.3 | 14.5 | 0.00 | 0.10 | 0.00 | 90 | 1013.7 |
| 20260904045453 | 16 | 249 | 11.3 | 17.7 | 0.00 | 0.10 | 0.00 | 90 | 1013.6 |
| 20260904044953 | 16 | 261 | 11.3 | 17.7 | 0.00 | 0.10 | 0.00 | 90 | 1013.5 |
| 20260904044453 | 16 | 262 | 11.3 | 16.1 | 0.00 | 0.10 | 0.00 | 90 | 1013.6 |
| 20260904044007 | 16 | 290 | 12.9 | 17.7 | 0.00 | 0.00 | 0.00 | 89 | 1011.6 |
| 20260904043953 | 16 | 282 | 12.9 | 17.7 | 0.00 | 0.10 | 0.00 | 90 | 1013.3 |
| 20260904043508 | 16 | 270 | 12.9 | 17.7 | 0.00 | 0.00 | 0.00 | 89 | 1011.8 |
| 20260904043453 | 16 | 320 | 12.9 | 17.7 | 0.00 | 0.10 | 0.00 | 90 | 1013.7 |
| 20260904043008 | 16 | 253 | 11.3 | 12.9 | 0.00 | 0.00 | 0.00 | 89 | 1011.8 |
| 20260904042952 | 16 | 286 | 11.3 | 12.9 | 0.00 | 0.10 | 0.00 | 90 | 1014.0 |
| 20260904042507 | 16 | 248 | 12.9 | 17.7 | 0.00 | 0.00 | 0.00 | 89 | 1011.8 |
| 20260904042453 | 16 | 268 | 12.9 | 17.7 | 0.00 | 0.10 | 0.00 | 90 | 1014.0 |
| 20260904042008 | 16 | 258 | 12.9 | 17.7 | 0.00 | 0.00 | 0.00 | 89 | 1011.6 |
| 20260904041953 | 16 | 280 | 12.9 | 17.7 | 0.00 | 0.10 | 0.00 | 90 | 1013.6 |
| 20260904041508 | 16 | 306 | 12.9 | 17.7 | 0.00 | 0.00 | 0.00 | 89 | 1011.8 |
| 20260904041453 | 16 | 279 | 11.3 | 16.1 | 0.00 | 0.10 | 0.00 | 90 | 1013.9 |
| 20260904040953 | 16 | 271 | 11.3 | 14.5 | 0.00 | 0.10 | 0.00 | 90 | 1013.5 |
| 20260904040508 | 16 | 346 | 11.3 | 14.5 | 0.00 | 0.00 | 0.00 | 88 | 1011.8 |
| 20260904040453 | 16 | 260 | 11.3 | 14.5 | 0.00 | 0.10 | 0.00 | 90 | 1013.9 |
| 20260904040008 | 16 | 267 | 12.9 | 14.5 | 0.00 | 0.00 | 0.00 | 88 | 1011.7 |
| 20260904035959 | 16 | 270 | 11.3 | 14.5 | 0.00 | 0.10 | 0.00 | 89 | 1013.6 |
| 20260904035452 | 16 | 278 | 11.3 | 14.5 | 0.00 | 0.10 | 0.00 | 88 | 1013.7 |
| 20260904035008 | 16 | 277 | 12.9 | 17.7 | 0.00 | 0.00 | 0.00 | 87 | 1011.7 |
| 20260904034953 | 16 | 261 | 12.9 | 17.7 | 0.00 | 0.10 | 0.00 | 88 | 1013.7 |
| 20260904034508 | 16 | 288 | 12.9 | 17.7 | 0.00 | 0.00 | 0.00 | 86 | 1011.7 |
| 20260904034007 | 16 | 278 | 12.9 | 16.1 | 0.00 | 0.00 | 0.00 | 85 | 1011.7 |
| 20260904033953 | 17 | 261 | 12.9 | 17.7 | 0.00 | 0.10 | 0.00 | 84 | 1013.6 |
| 20260904033507 | 17 | 270 | 12.9 | 16.1 | 0.00 | 0.00 | 0.00 | 83 | 1011.7 |
| 20260904033453 | 17 | 253 | 12.9 | 17.7 | 0.00 | 0.10 | 0.00 | 84 | 1013.6 |
| 20260904033008 | 17 | 273 | 11.3 | 16.1 | 0.00 | 0.00 | 0.00 | 83 | 1011.5 |
| 20260904032953 | 17 | 248 | 11.3 | 16.1 | 0.00 | 0.10 | 0.00 | 83 | 1013.5 |
| 20260904032507 | 17 | 255 | 11.3 | 16.1 | 0.00 | 0.00 | 0.00 | 83 | 1011.5 |
| 20260904032453 | 17 | 255 | 11.3 | 16.1 | 0.00 | 0.10 | 0.00 | 83 | 1013.5 |
| 20260904031953 | 17 | 264 | 9.7 | 16.1 | 0.00 | 0.10 | 0.00 | 83 | 1013.6 |
| 20260904031508 | 17 | 256 | 9.7 | 16.1 | 0.00 | 0.00 | 0.00 | 83 | 1011.8 |
| 20260904031007 | 17 | 255 | 9.7 | 16.1 | 0.00 | 0.00 | 0.00 | 82 | 1011.6 |
| 20260904030508 | 17 | 277 | 12.9 | 14.5 | 0.00 | 0.00 | 0.00 | 82 | 1011.6 |
| 20260904030453 | 17 | 240 | 12.9 | 16.1 | 0.00 | 0.10 | 0.00 | 82 | 1013.6 |
| 20260904030008 | 17 | 272 | 14.5 | 17.7 | 0.00 | 0.00 | 0.00 | 82 | 1011.7 |
| 20260904030002 | 17 | 248 | 14.5 | 17.7 | 0.00 | 0.10 | 0.00 | 82 | 1013.7 |
| 20260904025508 | 17 | 258 | 14.5 | 17.7 | 0.00 | 0.00 | 0.00 | 82 | 1011.7 |
| 20260904025453 | 17 | 251 | 14.5 | 17.7 | 0.00 | 0.10 | 0.00 | 82 | 1013.9 |
| 20260904025007 | 17 | 256 | 14.5 | 17.7 | 0.00 | 0.00 | 0.00 | 82 | 1011.8 |
| 20260904024953 | 17 | 268 | 14.5 | 17.7 | 0.00 | 0.10 | 0.00 | 82 | 1013.8 |
| 20260904024508 | 17 | 264 | 12.9 | 19.3 | 0.00 | 0.00 | 0.00 | 82 | 1012.0 |
| 20260904024007 | 17 | 269 | 12.9 | 19.3 | 0.00 | 0.00 | 0.00 | 82 | 1011.8 |
| 20260904023953 | 17 | 270 | 12.9 | 17.7 | 0.00 | 0.10 | 0.00 | 82 | 1013.8 |
| 20260904023507 | 17 | 268 | 12.9 | 19.3 | 0.00 | 0.00 | 0.00 | 82 | 1011.9 |
| 20260904022507 | 17 | 272 | 12.9 | 17.7 | 0.00 | 0.00 | 0.00 | 82 | 1011.7 |
| 20260904022453 | 17 | 266 | 12.9 | 19.3 | 0.00 | 0.10 | 0.00 | 82 | 1013.8 |
| 20260904022008 | 17 | 283 | 12.9 | 16.1 | 0.00 | 0.00 | 0.00 | 82 | 1011.9 |
| 20260904021953 | 17 | 273 | 12.9 | 17.7 | 0.00 | 0.10 | 0.00 | 82 | 1013.7 |
| 20260904021454 | 17 | 280 | 12.9 | 17.7 | 0.00 | 0.10 | 0.00 | 81 | 1013.8 |
| 20260904021007 | 17 | 305 | 14.5 | 17.7 | 0.00 | 0.00 | 0.00 | 81 | 1011.8 |
| 20260904020953 | 17 | 310 | 12.9 | 17.7 | 0.00 | 0.10 | 0.00 | 81 | 1013.6 |
| 20260904020508 | 17 | 321 | 16.1 | 20.9 | 0.00 | 0.00 | 0.00 | 81 | 1011.7 |
| 20260904020453 | 17 | 314 | 14.5 | 20.9 | 0.00 | 0.10 | 0.00 | 81 | 1013.8 |
| 20260904020007 | 17 | 304 | 14.5 | 20.9 | 0.00 | 0.00 | 0.00 | 81 | 1011.8 |
| 20260904015959 | 17 | 304 | 14.5 | 20.9 | 0.00 | 0.10 | 0.00 | 81 | 1013.9 |
| 20260904015507 | 17 | 269 | 12.9 | 17.7 | 0.00 | 0.00 | 0.00 | 80 | 1011.7 |
| 20260904015453 | 17 | 286 | 12.9 | 17.7 | 0.00 | 0.10 | 0.00 | 80 | 1013.7 |
| 20260904014953 | 17 | 272 | 11.3 | 16.1 | 0.00 | 0.10 | 0.00 | 79 | 1014.0 |
| 20260904014507 | 17 | 253 | 14.5 | 19.3 | 0.00 | 0.00 | 0.00 | 80 | 1011.8 |
| 20260904014453 | 17 | 287 | 14.5 | 20.9 | 0.00 | 0.10 | 0.00 | 79 | 1013.9 |
| 20260904014008 | 17 | 245 | 16.1 | 24.1 | 0.00 | 0.00 | 0.00 | 79 | 1011.9 |
| 20260904013953 | 17 | 294 | 16.1 | 24.1 | 0.00 | 0.10 | 0.00 | 79 | 1013.9 |
| 20260904013453 | 17 | 286 | 16.1 | 24.1 | 0.00 | 0.10 | 0.00 | 78 | 1014.0 |
| 20260904013007 | 17 | 252 | 14.5 | 19.3 | 0.00 | 0.00 | 0.00 | 79 | 1011.8 |
| 20260904012953 | 17 | 266 | 14.5 | 17.7 | 0.00 | 0.10 | 0.00 | 78 | 1014.0 |
| 20260904012508 | 17 | 273 | 12.9 | 19.3 | 0.00 | 0.00 | 0.00 | 78 | 1011.9 |
| 20260904012453 | 17 | 252 | 14.5 | 17.7 | 0.00 | 0.10 | 0.00 | 78 | 1014.1 |
| 20260904011953 | 17 | 265 | 12.9 | 17.7 | 0.00 | 0.10 | 0.00 | 77 | 1013.9 |
| 20260904011507 | 17 | 266 | 12.9 | 14.5 | 0.00 | 0.00 | 0.00 | 78 | 1012.0 |
| 20260904011453 | 17 | 263 | 12.9 | 14.5 | 0.00 | 0.10 | 0.00 | 77 | 1014.0 |
| 20260904010953 | 17 | 254 | 12.9 | 17.7 | 0.00 | 0.10 | 0.00 | 77 | 1014.1 |
| 20260904010507 | 17 | 310 | 12.9 | 17.7 | 0.00 | 0.00 | 0.00 | 78 | 1012.0 |
| 20260904010453 | 17 | 259 | 12.9 | 17.7 | 0.00 | 0.10 | 0.00 | 77 | 1014.0 |
| 20260904010008 | 17 | 290 | 11.3 | 16.1 | 0.00 | 0.00 | 0.00 | 77 | 1011.9 |
| 20260904005958 | 17 | 240 | 12.9 | 16.1 | 0.00 | 0.10 | 0.00 | 77 | 1014.1 |
| 20260904005508 | 17 | 263 | 11.3 | 14.5 | 0.00 | 0.00 | 0.00 | 77 | 1012.0 |
| 20260904005453 | 17 | 234 | 11.3 | 14.5 | 0.00 | 0.10 | 0.00 | 77 | 1013.9 |
| 20260904005007 | 17 | 253 | 11.3 | 14.5 | 0.00 | 0.00 | 0.00 | 77 | 1012.0 |
| 20260904004953 | 17 | 257 | 11.3 | 14.5 | 0.00 | 0.10 | 0.00 | 77 | 1014.3 |
| 20260904004453 | 17 | 245 | 11.3 | 14.5 | 0.00 | 0.10 | 0.00 | 76 | 1014.1 |
| 20260904004008 | 17 | 240 | 9.7 | 12.9 | 0.00 | 0.00 | 0.00 | 76 | 1012.0 |
| 20260904003953 | 17 | 243 | 9.7 | 14.5 | 0.00 | 0.10 | 0.00 | 76 | 1014.1 |
| 20260904003507 | 17 | 226 | 6.4 | 9.7 | 0.00 | 0.00 | 0.00 | 76 | 1012.2 |
| 20260904003453 | 17 | 246 | 8.0 | 11.3 | 0.00 | 0.10 | 0.00 | 75 | 1014.1 |
| 20260904003008 | 17 | 239 | 6.4 | 9.7 | 0.00 | 0.00 | 0.00 | 75 | 1012.1 |
| 20260904002953 | 17 | 246 | 8.0 | 8.0 | 0.00 | 0.10 | 0.00 | 75 | 1014.1 |
| 20260904002508 | 17 | 243 | 8.0 | 9.7 | 0.00 | 0.00 | 0.00 | 75 | 1012.4 |
| 20260904002453 | 17 | 273 | 8.0 | 11.3 | 0.00 | 0.10 | 0.00 | 75 | 1013.9 |
| 20260904002007 | 17 | 239 | 8.0 | 9.7 | 0.00 | 0.00 | 0.00 | 74 | 1012.2 |
| 20260904001453 | 17 | 242 | 8.0 | 11.3 | 0.00 | 0.10 | 0.00 | 74 | 1014.3 |
| 20260904000953 | 17 | 228 | 8.0 | 9.7 | 0.00 | 0.10 | 0.00 | 73 | 1014.2 |
| 20260904000507 | 17 | 198 | 8.0 | 9.7 | 0.00 | 0.00 | 0.00 | 73 | 1012.4 |
| 20260904000455 | 17 | 233 | 8.0 | 11.3 | 0.00 | 0.10 | 0.00 | 73 | 1014.3 |
| 20260904000008 | 17 | 232 | 6.4 | 9.7 | 0.00 | 0.00 | 0.00 | 73 | 1012.5 |
| 20260903235959 | 17 | 238 | 6.4 | 11.3 | 0.00 | 0.10 | 0.00 | 73 | 1014.4 |
| 20260903235508 | 17 | 232 | 6.4 | 8.0 | 0.00 | 0.00 | 0.00 | 73 | 1012.4 |
| 20260903234453 | 17 | 245 | 8.0 | 9.7 | 0.00 | 0.10 | 0.00 | 72 | 1014.4 |
| 20260903233953 | 17 | 234 | 8.0 | 12.9 | 0.00 | 0.10 | 0.00 | 71 | 1014.5 |
| 20260903233507 | 17 | 246 | 4.8 | 12.9 | 0.00 | 0.00 | 0.00 | 72 | 1012.3 |
| 20260903233453 | 17 | 248 | 6.4 | 12.9 | 0.00 | 0.10 | 0.00 | 71 | 1014.4 |
| 20260903233008 | 17 | 241 | 4.8 | 6.4 | 0.00 | 0.00 | 0.00 | 71 | 1012.5 |
| 20260903232953 | 17 | 260 | 6.4 | 9.7 | 0.00 | 0.10 | 0.00 | 71 | 1014.4 |
| 20260903232007 | 18 | 272 | 8.0 | 12.9 | 0.00 | 0.00 | 0.00 | 70 | 1012.5 |
| 20260903231953 | 18 | 226 | 9.7 | 12.9 | 0.00 | 0.10 | 0.00 | 69 | 1014.5 |
| 20260903231508 | 18 | 269 | 11.3 | 14.5 | 0.00 | 0.00 | 0.00 | 70 | 1012.6 |
| 20260903231453 | 18 | 237 | 11.3 | 14.5 | 0.00 | 0.10 | 0.00 | 69 | 1014.5 |
| 20260903231008 | 18 | 262 | 11.3 | 14.5 | 0.00 | 0.00 | 0.00 | 70 | 1012.7 |
| 20260903230507 | 18 | 259 | 12.9 | 16.1 | 0.00 | 0.00 | 0.00 | 70 | 1012.7 |
| 20260903230453 | 18 | 269 | 12.9 | 16.1 | 0.00 | 0.10 | 0.00 | 69 | 1014.7 |
| 20260903230008 | 18 | 262 | 11.3 | 16.1 | 0.00 | 0.00 | 0.00 | 70 | 1012.7 |
| 20260903225959 | 18 | 276 | 11.3 | 16.1 | 0.00 | 0.10 | 0.00 | 69 | 1014.7 |
| 20260903225508 | 18 | 261 | 9.7 | 12.9 | 0.00 | 0.00 | 0.00 | 69 | 1012.8 |
| 20260903225453 | 18 | 273 | 9.7 | 12.9 | 0.00 | 0.10 | 0.00 | 68 | 1014.9 |
| 20260903225007 | 18 | 234 | 11.3 | 17.7 | 0.00 | 0.00 | 0.00 | 69 | 1012.7 |
| 20260903224508 | 18 | 248 | 12.9 | 17.7 | 0.00 | 0.00 | 0.00 | 69 | 1012.8 |
| 20260903224453 | 18 | 232 | 12.9 | 17.7 | 0.00 | 0.10 | 0.00 | 68 | 1014.8 |
| 20260903224007 | 18 | 261 | 12.9 | 17.7 | 0.00 | 0.00 | 0.00 | 69 | 1012.7 |
| 20260903223507 | 18 | 240 | 12.9 | 14.5 | 0.00 | 0.00 | 0.00 | 70 | 1012.8 |
| 20260903223453 | 18 | 242 | 12.9 | 17.7 | 0.00 | 0.10 | 0.00 | 68 | 1014.9 |
| 20260903223008 | 17 | 231 | 9.7 | 12.9 | 0.00 | 0.00 | 0.00 | 70 | 1012.8 |
| 20260903222953 | 17 | 242 | 9.7 | 16.1 | 0.00 | 0.10 | 0.00 | 68 | 1014.8 |
| 20260903222453 | 17 | 241 | 6.4 | 12.9 | 0.00 | 0.10 | 0.00 | 69 | 1014.4 |